Location: Huntsville
(41.2590°N, 111.7678°W)
Time: 19:52:55
(UTC+00:00)

ISS - Pass Details

Date: 08 December 2021
Orbit: 413 x 422 km, 51.6° (Epoch: 25 January)

Event Time Altitude Azimuth Distance (km) Brightness Sun altitude
Rises 01:24:28 0° 301° (WNW) 2,383 0.7 -15.8°
Reaches altitude 10° 01:26:38 10° 294° (WNW) 1,512 -0.2 -16.2°
Maximum altitude 01:29:52 42° 222° (SW) 613 -2.5 -16.7°
Drops below altitude 10° 01:33:04 10° 150° (SSE) 1,496 -1.1 -17.3°
Enters shadow 01:33:09 10° 149° (SSE) 1,529 -1.1 -17.3°
